This is the latest recevied weather packets stored in our database for station/object N7AWM. If no packets are shown the sender has not sent any weather packets the latest 10 day(s).
| Time | Temp. | Humidity | Pressure | Rain* | Wind** | Luminosity | Snow |
|---|---|---|---|---|---|---|---|
| 1778041795 | 22.22° C | 41% | 1006.6 hPa | 0 mm | - | - | - |
| 1778040955 | 21.67° C | 38% | 1006.4 hPa | 0 mm | - | - | - |
| 1778040115 | 21.67° C | 37% | 1006.3 hPa | 0 mm | - | - | - |
| 1778039275 | 21.11° C | 39% | 1006.1 hPa | 0 mm | - | - | - |
| 1778038435 | 21.11° C | 39% | 1006 hPa | 0 mm | - | - | - |
| 1778037595 | 21.11° C | 40% | 1005.8 hPa | 0 mm | - | - | - |
| 1778036755 | 22.22° C | 39% | 1005.7 hPa | 0 mm | - | - | - |
| 1778035915 | 24.44° C | 34% | 1005.6 hPa | 0 mm | - | - | - |
| 1778035075 | 25° C | 39% | 1005.5 hPa | 0 mm | - | - | - |
| 1778034235 | 25.56° C | 42% | 1005.3 hPa | 0 mm | - | - | - |
| 1778033395 | 25.56° C | 42% | 1005.2 hPa | 0 mm | - | - | - |
| 1778032556 | 27.22° C | 36% | 1005.1 hPa | 0 mm | - | - | - |
| 1778031716 | 26.67° C | 35% | 1005 hPa | 0 mm | - | - | - |
| 1778030876 | 26.67° C | 34% | 1005 hPa | 0 mm | - | - | - |
| 1778030036 | 26.67° C | 34% | 1005 hPa | 0 mm | - | - | - |
| 1778029196 | 26.11° C | 35% | 1005.1 hPa | 0 mm | - | - | - |
| 1778028356 | 26.67° C | 35% | 1005 hPa | 0 mm | - | - | - |
| 1778027516 | 27.22° C | 33% | 1005.1 hPa | 0 mm | - | - | - |
| 1778026676 | 26.67° C | 35% | 1005.1 hPa | 0 mm | - | - | - |
| 1778025836 | 26.67° C | 34% | 1005.3 hPa | 0 mm | - | - | - |
| 1778024996 | 26.67° C | 34% | 1005.4 hPa | 0 mm | - | - | - |
| 1778024156 | 27.22° C | 32% | 1005.5 hPa | 0 mm | - | - | - |
| 1778023316 | 26.67° C | 31% | 1005.5 hPa | 0 mm | - | - | - |
| 1778022476 | 27.22° C | 31% | 1005.7 hPa | 0 mm | - | - | - |
| 1778021636 | 27.78° C | 33% | 1005.7 hPa | 0 mm | - | - | - |
* Rain latest hour (hover to see other rain measurements)
** Current wind speed in m/s (hover to see current wind gust speed)